DW1347 Weather Reports


Display with metric or nautical units.
time (UTC)temp
F
wind
direction
speed
MPH
gust
MPH
rain 1hr
in
rain 24hr
in
rain mn
in
humidity
%
barometer
mb
20260906224841 79 287 3.0 6.0 0.00 0.00 0.00 47 1027.4
20260906224337 80 141 3.0 5.0 0.00 0.00 0.00 46 1027.6
20260906223833 80 60 6.0 8.0 0.00 0.00 0.00 45 1027.8
20260906223329 81 178 2.0 3.0 0.00 0.00 0.00 45 1027.6
20260906222827 80 18 2.0 3.0 0.00 0.00 0.00 45 1027.6
20260906222327 82 30 3.0 3.0 0.00 0.00 0.00 44 1027.6
20260906221824 80 194 2.0 3.0 0.00 0.00 0.00 45 1027.9
20260906221319 80 7 8.0 9.0 0.00 0.00 0.00 45 1027.9
20260906220814 80 157 1.0 1.0 0.00 0.00 0.00 46 1027.9
20260906220309 81 15 8.0 9.0 0.00 0.00 0.00 45 1028.0
20260906215808 82 148 3.0 3.0 0.00 0.00 0.00 43 1028.0
20260906215306 81 212 4.0 5.0 0.00 0.00 0.00 44 1028.3
20260906214801 81 222 4.0 5.0 0.00 0.00 0.00 44 1028.3
20260906214250 81 172 2.0 3.0 0.00 0.00 0.00 45 1028.1
20260906213743 79 11 5.0 7.0 0.00 0.00 0.00 46 1028.5
20260906213237 80 126 5.0 8.0 0.00 0.00 0.00 46 1028.6
20260906212734 80 50 2.0 2.0 0.00 0.00 0.00 45 1028.4
20260906212231 80 53 2.0 3.0 0.00 0.00 0.00 45 1028.4
20260906211730 81 161 4.0 6.0 0.00 0.00 0.00 45 1028.5
20260906211225 80 185 2.0 5.0 0.00 0.00 0.00 46 1028.6
20260906210720 79 119 5.0 7.0 0.00 0.00 0.00 45 1028.9
20260906210215 78 100 5.0 9.0 0.00 0.00 0.00 46 1028.5
20260906205710 78 162 4.0 5.0 0.00 0.00 0.00 48 1028.9
20260906205207 80 126 3.0 3.0 0.00 0.00 0.00 46 1028.6
20260906204706 80 220 1.0 1.0 0.00 0.00 0.00 46 1028.6
20260906204201 80 196 6.0 9.0 0.00 0.00 0.00 45 1028.8
20260906203701 80 155 6.0 8.0 0.00 0.00 0.00 45 1028.8
20260906203155 80 132 8.0 10.0 0.00 0.00 0.00 45 1028.9
20260906202653 80 66 9.0 11.0 0.00 0.00 0.00 45 1028.8
20260906202151 80 306 2.0 3.0 0.00 0.00 0.00 46 1028.8
20260906201647 79 185 2.0 3.0 0.00 0.00 0.00 45 1028.8
20260906201145 79 111 9.0 9.0 0.00 0.00 0.00 46 1029.0
20260906200642 80 66 4.0 6.0 0.00 0.00 0.00 46 1028.9
20260906200138 78 34 9.0 13.0 0.00 0.00 0.00 46 1029.0
20260906195633 77 6 4.0 11.0 0.00 0.00 0.00 47 1028.9
20260906195129 78 341 4.0 8.0 0.00 0.00 0.00 46 1029.0
20260906194625 78 55 3.0 3.0 0.00 0.00 0.00 46 1029.0
20260906194121 77 219 2.0 3.0 0.00 0.00 0.00 47 1029.0
20260906193621 79 103 5.0 7.0 0.00 0.00 0.00 45 1029.1
20260906193116 79 10 5.0 7.0 0.00 0.00 0.00 45 1028.9
20260906192612 79 117 2.0 3.0 0.00 0.00 0.00 44 1028.9
20260906192110 79 21 6.0 7.0 0.00 0.00 0.00 44 1028.9
20260906191606 79 92 3.0 3.0 0.00 0.00 0.00 43 1028.9
20260906191105 79 40 7.0 8.0 0.00 0.00 0.00 44 1029.0
20260906190605 80 0 3.0 6.0 0.00 0.00 0.00 43 1029.3
20260906190100 80 219 0.0 1.0 0.00 0.00 0.00 43 1029.0
20260906185558 79 143 5.0 8.0 0.00 0.00 0.00 43 1029.4
20260906185058 79 92 5.0 7.0 0.00 0.00 0.00 44 1029.4
20260906184552 79 43 6.0 10.0 0.00 0.00 0.00 44 1029.5
20260906184048 79 124 2.0 3.0 0.00 0.00 0.00 45 1029.3
20260906183544 80 93 3.0 6.0 0.00 0.00 0.00 40 1029.7
20260906183040 81 131 3.0 5.0 0.00 0.00 0.00 38 1029.5
20260906182540 79 199 3.0 3.0 0.00 0.00 0.00 39 1029.9
20260906182031 80 65 3.0 5.0 0.00 0.00 0.00 42 1029.9
20260906181526 80 185 3.0 3.0 0.00 0.00 0.00 40 1030.0
20260906181022 80 174 3.0 6.0 0.00 0.00 0.00 44 1030.0
20260906180516 79 189 0.0 1.0 0.00 0.00 0.00 42 1029.8
20260906180015 79 192 0.0 0.0 0.00 0.00 0.00 43 1030.2
20260906175508 79 218 3.0 5.0 0.00 0.00 0.00 43 1030.3
20260906175003 79 231 3.0 3.0 0.00 0.00 0.00 43 1030.3
20260906174502 80 49 6.0 9.0 0.00 0.00 0.00 42 1030.4
20260906173956 79 32 3.0 3.0 0.00 0.00 0.00 44 1030.2
20260906173452 80 1 3.0 3.0 0.00 0.00 0.00 43 1030.7
20260906172951 78 35 2.0 2.0 0.00 0.00 0.00 46 1030.8
20260906172447 78 313 3.0 3.0 0.00 0.00 0.00 44 1030.9
20260906171942 78 249 4.0 7.0 0.00 0.00 0.00 46 1030.8
20260906171437 78 33 6.0 7.0 0.00 0.00 0.00 45 1031.2
20260906170933 78 164 3.0 3.0 0.00 0.00 0.00 44 1031.0
20260906170429 78 189 0.0 1.0 0.00 0.00 0.00 45 1030.9
20260906165926 78 192 1.0 1.0 0.00 0.00 0.00 44 1031.3
20260906165425 77 102 1.0 1.0 0.00 0.00 0.00 47 1031.0
20260906164920 76 335 5.0 7.0 0.00 0.00 0.00 47 1031.3
20260906164418 78 12 2.0 3.0 0.00 0.00 0.00 46 1031.3
20260906163915 75 109 1.0 1.0 0.00 0.00 0.00 48 1031.3
20260906163411 74 48 4.0 5.0 0.00 0.00 0.00 47 1031.2
20260906162909 73 152 2.0 3.0 0.00 0.00 0.00 52 1031.3
20260906162407 73 244 3.0 5.0 0.00 0.00 0.00 51 1031.5
20260906161903 73 348 2.0 3.0 0.00 0.00 0.00 51 1031.3
20260906161401 72 329 3.0 5.0 0.00 0.00 0.00 51 1031.4
20260906160901 72 27 2.0 2.0 0.00 0.00 0.00 51 1031.3
20260906160354 71 347 1.0 2.0 0.00 0.00 0.00 53 1031.2
20260906155853 71 13 3.0 3.0 0.00 0.00 0.00 53 1031.0
20260906155347 71 307 3.0 3.0 0.00 0.00 0.00 53 1031.4
20260906154843 71 45 2.0 2.0 0.00 0.00 0.00 53 1031.0
20260906154337 71 123 0.0 0.0 0.00 0.00 0.00 58 1031.3
20260906153836 72 265 0.0 0.0 0.00 0.00 0.00 56 1031.4
20260906153336 71 191 0.0 0.0 0.00 0.00 0.00 55 1031.4
20260906152831 67 188 0.0 0.0 0.00 0.00 0.00 60 1031.4
20260906152326 67 148 0.0 0.0 0.00 0.00 0.00 60 1031.5
20260906151825 60 182 0.0 0.0 0.00 0.00 0.00 70 1031.3
20260906151321 57 108 0.0 0.0 0.00 0.00 0.00 93 1031.3
20260906150816 57 43 0.0 0.0 0.00 0.00 0.00 99 1031.5
20260906150312 61 182 0.0 0.0 0.00 0.00 0.00 99 1031.7
20260906145811 60 188 0.0 0.0 0.00 0.00 0.00 99 1031.4
20260906145309 60 195 0.0 0.0 0.00 0.00 0.00 99 1031.4
20260906144805 58 208 0.0 0.0 0.00 0.00 0.00 99 1031.7
20260906144300 57 209 0.0 0.0 0.00 0.00 0.00 99 1031.7
20260906143759 56 209 0.0 0.0 0.00 0.00 0.00 99 1031.3
20260906143256 55 214 0.0 0.0 0.00 0.00 0.00 99 1031.3
20260906142756 55 214 0.0 0.0 0.00 0.00 0.00 99 1031.7
20260906142252 54 216 0.0 0.0 0.00 0.00 0.00 99 1031.7
20260906141750 54 210 0.0 0.0 0.00 0.00 0.00 99 1031.3
20260906141245 54 209 0.0 0.0 0.00 0.00 0.00 99 1031.5
20260906140744 54 213 0.0 0.0 0.00 0.00 0.00 99 1031.5
20260906140239 52 210 0.0 0.0 0.00 0.00 0.00 99 1031.5
20260906135736 51 210 0.0 0.0 0.00 0.00 0.00 99 1031.4
20260906135232 51 189 0.0 0.0 0.00 0.00 0.00 99 1031.3
20260906134728 51 194 0.0 0.0 0.00 0.00 0.00 99 1031.5
20260906134223 50 212 0.0 0.0 0.00 0.00 0.00 99 1031.4
20260906133718 50 212 0.0 0.0 0.00 0.00 0.00 99 1031.0
20260906133214 49 207 0.0 0.0 0.00 0.00 0.00 99 1031.7
20260906132709 49 179 0.0 0.0 0.00 0.00 0.00 99 1031.4
20260906132204 48 190 0.0 0.0 0.00 0.00 0.00 99 1030.9
20260906131700 48 185 0.0 0.0 0.00 0.00 0.00 99 1031.3
20260906131155 48 213 0.0 0.0 0.00 0.00 0.00 99 1031.3
20260906130650 48 192 0.0 0.0 0.00 0.00 0.00 99 1031.0
20260906130145 48 193 0.0 0.0 0.00 0.00 0.00 99 1031.0
20260906125643 48 202 0.0 0.0 0.00 0.00 0.00 99 1031.3
20260906125142 48 193 0.0 0.0 0.00 0.00 0.00 99 1031.2
20260906124638 48 196 0.0 0.0 0.00 0.00 0.00 99 1030.9
20260906124133 48 174 0.0 0.0 0.00 0.00 0.00 99 1030.9
20260906123632 48 180 0.0 0.0 0.00 0.00 0.00 99 1031.2
20260906123127 48 203 0.0 0.0 0.00 0.00 0.00 99 1031.2
20260906122626 48 208 0.0 0.0 0.00 0.00 0.00 99 1030.8
20260906122122 48 207 0.0 0.0 0.00 0.00 0.00 99 1031.0
20260906121618 48 208 0.0 0.0 0.00 0.00 0.00 99 1031.0
20260906121114 48 207 0.0 0.0 0.00 0.00 0.00 99 1031.0
20260906120609 48 181 0.0 0.0 0.00 0.00 0.00 99 1031.2
20260906120106 48 211 0.0 0.0 0.00 0.00 0.00 99 1031.0
20260906115601 49 203 0.0 0.0 0.00 0.00 0.00 99 1031.2
20260906115056 49 190 0.0 0.0 0.00 0.00 0.00 99 1031.2
20260906114555 49 184 0.0 0.0 0.00 0.00 0.00 99 1031.3
20260906114051 48 204 0.0 0.0 0.00 0.00 0.00 99 1031.2
20260906113550 49 216 0.0 0.0 0.00 0.00 0.00 99 1031.0
20260906113045 49 212 0.0 0.0 0.00 0.00 0.00 99 1031.2
20260906112540 49 215 0.0 0.0 0.00 0.00 0.00 99 1031.2
20260906112037 49 201 0.0 0.0 0.00 0.00 0.00 99 1031.2
20260906111536 49 188 0.0 0.0 0.00 0.00 0.00 99 1031.0
20260906111032 49 204 0.0 0.0 0.00 0.00 0.00 99 1031.2
20260906110531 49 212 0.0 0.0 0.00 0.00 0.00 99 1031.0
20260906110031 49 208 0.0 0.0 0.00 0.00 0.00 99 1030.8
20260906105526 49 211 0.0 0.0 0.00 0.00 0.00 99 1030.9
20260906105022 49 205 0.0 0.0 0.00 0.00 0.00 99 1030.8
20260906104520 49 184 0.0 0.0 0.00 0.00 0.00 99 1030.9
20260906104015 49 213 0.0 0.0 0.00 0.00 0.00 99 1030.9
20260906103513 49 197 0.0 0.0 0.00 0.00 0.00 99 1031.3
20260906103009 49 206 0.0 0.0 0.00 0.00 0.00 99 1030.7
20260906102509 49 197 0.0 0.0 0.00 0.00 0.00 99 1030.9
20260906102009 49 199 0.0 0.0 0.00 0.00 0.00 99 1030.9
20260906101504 49 214 0.0 0.0 0.00 0.00 0.00 99 1030.9
20260906100958 50 197 0.0 0.0 0.00 0.00 0.00 99 1031.0
20260906100454 49 185 0.0 0.0 0.00 0.00 0.00 99 1030.9
20260906095948 49 196 0.0 0.0 0.00 0.00 0.00 99 1030.9
20260906095444 50 210 0.0 0.0 0.00 0.00 0.00 99 1031.0
20260906094938 50 192 0.0 0.0 0.00 0.00 0.00 99 1030.9
20260906094431 50 208 0.0 0.0 0.00 0.00 0.00 99 1031.2
20260906093923 50 208 0.0 0.0 0.00 0.00 0.00 99 1031.0
20260906093419 50 200 0.0 0.0 0.00 0.00 0.00 99 1031.0
20260906092919 50 209 0.0 0.0 0.00 0.00 0.00 99 1031.2
20260906092418 50 215 0.0 0.0 0.00 0.00 0.00 99 1031.2
20260906091914 50 208 0.0 0.0 0.00 0.00 0.00 99 1031.2
20260906091410 50 205 0.0 0.0 0.00 0.00 0.00 99 1031.2
20260906090906 50 211 0.0 0.0 0.00 0.00 0.00 99 1030.8
20260906090406 50 208 0.0 0.0 0.00 0.00 0.00 99 1031.0
20260906085901 50 183 0.0 0.0 0.00 0.00 0.00 99 1030.9
20260906085400 50 217 0.0 0.0 0.00 0.00 0.00 99 1031.2
20260906084859 50 196 1.0 1.0 0.00 0.00 0.00 99 1030.9
20260906084354 50 209 0.0 0.0 0.00 0.00 0.00 99 1031.0
20260906083848 50 191 0.0 0.0 0.00 0.00 0.00 99 1030.9
20260906083344 51 206 0.0 0.0 0.00 0.00 0.00 99 1031.2
20260906082843 51 178 0.0 0.0 0.00 0.00 0.00 99 1030.9
20260906082338 51 195 0.0 0.0 0.00 0.00 0.00 99 1030.9
20260906081835 51 180 1.0 1.0 0.00 0.00 0.00 99 1031.2
20260906081330 51 128 0.0 0.0 0.00 0.00 0.00 99 1031.2
20260906080826 51 92 0.0 0.0 0.00 0.00 0.00 99 1030.9
20260906080322 51 201 0.0 0.0 0.00 0.00 0.00 99 1031.3
20260906075821 51 214 0.0 0.0 0.00 0.00 0.00 99 1031.2
20260906075316 51 209 0.0 0.0 0.00 0.00 0.00 99 1031.0
20260906074811 51 199 0.0 0.0 0.00 0.00 0.00 99 1031.3
20260906074311 51 200 0.0 0.0 0.00 0.00 0.00 99 1031.4
20260906073810 51 189 0.0 0.0 0.00 0.00 0.00 99 1031.5
20260906073305 51 166 0.0 0.0 0.00 0.00 0.00 99 1031.2
20260906072801 51 216 0.0 0.0 0.00 0.00 0.00 99 1031.4
20260906072257 51 207 0.0 0.0 0.00 0.00 0.00 99 1031.5
20260906071752 51 186 0.0 0.0 0.00 0.00 0.00 99 1031.5
20260906071252 51 199 0.0 0.0 0.00 0.00 0.00 99 1031.5
20260906070743 51 183 0.0 0.0 0.00 0.00 0.00 99 1031.5
20260906070238 52 204 0.0 0.0 0.00 0.00 0.00 99 1031.5
20260906065738 52 190 0.0 0.0 0.00 0.00 0.00 99 1031.5
20260906065233 52 165 0.0 0.0 0.00 0.00 0.00 99 1031.4
20260906064729 52 193 0.0 0.0 0.00 0.00 0.00 99 1031.5
20260906064224 52 192 0.0 0.0 0.00 0.00 0.00 99 1031.3
20260906063719 52 214 0.0 0.0 0.00 0.00 0.00 99 1031.7
20260906063215 52 197 0.0 0.0 0.00 0.00 0.00 99 1031.7
20260906062711 53 214 0.0 0.0 0.00 0.00 0.00 99 1031.8
20260906062210 53 196 0.0 0.0 0.00 0.00 0.00 99 1031.7
20260906061705 53 217 0.0 0.0 0.00 0.00 0.00 99 1031.7
20260906061201 53 219 0.0 0.0 0.00 0.00 0.00 99 1031.9
20260906060657 53 185 0.0 0.0 0.00 0.00 0.00 99 1031.8
20260906060154 53 205 0.0 0.0 0.00 0.00 0.00 99 1032.1
20260906055649 54 125 0.0 0.0 0.00 0.21 0.21 99 1031.8
20260906055144 54 209 0.0 0.0 0.00 0.21 0.21 99 1031.8
20260906054640 54 193 1.0 1.0 0.00 0.21 0.21 99 1031.9
20260906054134 54 201 1.0 1.0 0.00 0.21 0.21 99 1032.1
20260906053631 54 186 0.0 0.0 0.00 0.21 0.21 99 1032.1
20260906053126 54 183 1.0 2.0 0.00 0.21 0.21 99 1031.9
20260906052621 55 201 0.0 0.0 0.00 0.21 0.21 99 1031.9
20260906052118 55 219 0.0 0.0 0.00 0.21 0.21 99 1032.2
20260906051614 55 221 0.0 0.0 0.00 0.21 0.21 99 1032.3
20260906051109 55 133 4.0 5.0 0.00 0.21 0.21 99 1032.4
20260906050604 55 168 0.0 0.0 0.00 0.21 0.21 99 1032.2
20260906050059 55 175 0.0 0.0 0.00 0.21 0.21 99 1032.4
20260906045557 55 209 0.0 0.0 0.00 0.21 0.21 99 1032.7
20260906045053 56 208 1.0 2.0 0.00 0.21 0.21 99 1032.4
20260906044549 56 118 2.0 2.0 0.00 0.21 0.21 99 1032.4
20260906044044 56 220 2.0 2.0 0.00 0.21 0.21 99 1032.4
20260906043540 56 223 0.0 0.0 0.00 0.21 0.21 99 1032.3
20260906043036 56 215 0.0 0.0 0.05 0.21 0.21 99 1032.4
20260906042534 57 181 1.0 1.0 0.12 0.21 0.21 98 1032.3
20260906042029 57 221 0.0 0.0 0.54 0.20 0.20 97 1032.7
20260906041525 57 247 3.0 3.0 1.13 0.19 0.19 95 1032.4
20260906041025 60 241 4.0 5.0 0.59 0.10 0.10 89 1032.6
20260906040520 68 259 8.0 9.0 0.00 0.00 0.00 63 1031.8
20260906040016 68 282 5.0 6.0 0.00 0.00 0.00 51 1031.5
20260906035510 68 303 5.0 7.0 0.00 0.00 0.00 50 1031.3
20260906035006 68 213 3.0 3.0 0.00 0.00 0.00 50 1031.4
20260906034500 67 264 2.0 2.0 0.00 0.00 0.00 49 1031.2
20260906033955 65 240 4.0 5.0 0.00 0.00 0.00 50 1031.2
20260906033450 64 259 1.0 3.0 0.00 0.00 0.00 51 1031.2
20260906032946 63 153 2.0 3.0 0.00 0.00 0.00 52 1031.0
20260906032443 63 202 0.0 0.0 0.00 0.00 0.00 52 1030.9
20260906031942 63 207 0.0 0.0 0.00 0.00 0.00 52 1031.0
20260906031438 63 207 0.0 0.0 0.00 0.00 0.00 52 1031.2
20260906030933 63 227 0.0 1.0 0.00 0.00 0.00 52 1031.2
20260906030428 63 187 1.0 1.0 0.00 0.00 0.00 52 1030.9
20260906025922 64 217 0.0 0.0 0.00 0.00 0.00 51 1031.0
20260906025417 64 221 0.0 0.0 0.00 0.00 0.00 52 1030.7
20260906024915 63 221 0.0 0.0 0.00 0.00 0.00 51 1030.7
20260906024414 63 197 0.0 0.0 0.00 0.00 0.00 51 1030.5
20260906023905 64 219 0.0 0.0 0.00 0.00 0.00 51 1030.4
20260906023401 64 214 0.0 0.0 0.00 0.00 0.00 50 1030.5
20260906022900 64 208 0.0 0.0 0.00 0.00 0.00 50 1030.3
20260906022355 65 215 0.0 0.0 0.00 0.00 0.00 50 1030.3
20260906021851 65 191 0.0 0.0 0.00 0.00 0.00 49 1030.4
20260906021350 65 184 1.0 1.0 0.00 0.00 0.00 49 1030.4
20260906020845 65 214 0.0 0.0 0.00 0.00 0.00 49 1030.2
20260906020345 66 177 2.0 2.0 0.00 0.00 0.00 47 1030.0
20260906015839 66 196 0.0 0.0 0.00 0.00 0.00 48 1030.0
20260906015339 66 212 0.0 0.0 0.00 0.00 0.00 47 1029.9
20260906014839 66 206 0.0 0.0 0.00 0.00 0.00 48 1029.9
20260906014333 67 201 1.0 1.0 0.00 0.00 0.00 46 1029.9
20260906013830 68 195 0.0 0.0 0.00 0.00 0.00 45 1029.9
20260906013325 69 205 0.0 0.0 0.00 0.00 0.00 45 1029.9
20260906012820 69 224 0.0 0.0 0.00 0.00 0.00 44 1029.8
20260906012315 71 219 0.0 0.0 0.00 0.00 0.00 42 1029.9
20260906011810 72 218 0.0 0.0 0.00 0.00 0.00 41 1029.9
20260906011310 73 215 0.0 0.0 0.00 0.00 0.00 40 1029.9
20260906010806 74 216 0.0 0.0 0.00 0.00 0.00 39 1029.9
20260906010302 74 210 0.0 0.0 0.00 0.00 0.00 39 1029.7
20260906005757 75 208 0.0 0.0 0.00 0.00 0.00 38 1029.7
20260906005256 75 214 0.0 0.0 0.00 0.00 0.00 37 1029.9
20260906004755 75 77 1.0 2.0 0.00 0.00 0.00 37 1029.8
20260906004250 76 210 0.0 0.0 0.00 0.00 0.00 37 1029.8
20260906003749 76 215 0.0 0.0 0.00 0.00 0.00 37 1029.7
20260906003245 77 139 1.0 2.0 0.00 0.00 0.00 37 1029.8
20260906002740 77 217 1.0 1.0 0.00 0.00 0.00 36 1029.7
20260906002240 77 129 0.0 1.0 0.00 0.00 0.00 36 1029.7
20260906001736 77 164 1.0 2.0 0.00 0.00 0.00 36 1029.7
20260906001231 78 82 2.0 2.0 0.00 0.00 0.00 36 1029.7
20260906000726 78 33 1.0 2.0 0.00 0.00 0.00 35 1029.5
20260906000226 79 188 1.0 2.0 0.00 0.00 0.00 35 1029.5
20260905235721 79 179 3.0 5.0 0.00 0.00 0.00 34 1029.7
20260905235216 79 162 2.0 2.0 0.00 0.00 0.00 34 1029.8
20260905234711 80 146 3.0 3.0 0.00 0.00 0.00 34 1029.4
20260905234206 80 36 2.0 2.0 0.00 0.00 0.00 34 1029.4
20260905233702 81 163 1.0 2.0 0.00 0.00 0.00 33 1029.5
20260905233201 81 184 7.0 9.0 0.00 0.00 0.00 33 1029.3
20260905232656 82 196 2.0 2.0 0.00 0.00 0.00 33 1029.7
20260905232152 82 233 3.0 5.0 0.00 0.00 0.00 33 1029.3
20260905231648 81 227 1.0 1.0 0.00 0.00 0.00 33 1029.5
20260905231143 81 221 1.0 2.0 0.00 0.00 0.00 33 1029.4
20260905230639 81 170 1.0 2.0 0.00 0.00 0.00 33 1029.3
20260905230136 82 42 2.0 2.0 0.00 0.00 0.00 33 1029.3
20260905225631 81 194 0.0 0.0 0.00 0.00 0.00 33 1029.4